Weather WX

World > North America > United States > Mississippi

Sidon, Mississippi Regional Weather

Lat: 33.41N, Lon: 90.21W
Wx Zone: MSZ025
Feedback

Sidon, MS Regional Weather

Expires:201906171100;;207775
ASUS44 KJAN 171010
RWRMS 

MISSISSIPPI HOURLY WEATHER ROUNDUP
NATIONAL WEATHER SERVICE JACKSON MS
500 AM CDT MON JUN 17 2019

NOTE: "FAIR: INDICATES FEW OR NO CLOUDS BELOW 12,000 FEET WITH NO
SIGNIFICANT WEATHER AND/OR OBSTRUCTIONS TO VISIBILITY.


MSZ001>002-007>008-010>013-018>021-025>028-034>036-171100-
NORTHWEST MISSISSIPPI
  
CITY           SKY/WX    TMP DP  RH WIND       PRES   REMARKS
BATESVILLE       N/A     72  70  94 CALM      29.92R                  
CLARKSDALE     CLEAR     70  70 100 CALM      29.91S                  
CLEVELAND      FAIR      68  68 100 CALM      29.91R                  
GREENWOOD      FAIR      72  68  87 S6        29.90R                  
GREENVILLE     FAIR      68  66  93 CALM      29.90R                  
OLIVE BRANCH   CLEAR     68 N/A N/A S6        29.91R FOG              
OXFORD         FAIR      70  68  94 CALM      29.94R                  
TUNICA           N/A     68  64  88 S6        29.91S                  
WINONA         FAIR      69  69 100 CALM      29.92S                  
$$


SKY/WX - Weather  TMP - Temperature  DP - Dew Point  RH - Relative Humidity
WIND - Wind Direction/Speed PRES - Barometric Pressure VSB - Visibility
WCI - Wind Chill Index E13G22 Wind - East Wind 13 mph/Gusts of 22 mph